Location: Aalsum
(53.3404°N, 6.0062°E)
Time: 09:57:03
(UTC+00:00)

Cosmos 1340 Rocket - Pass Details

Date: 28 January 2023
Orbit: 515 x 558 km, 81.2° (Epoch: 19 March)

Event Time Altitude Azimuth Distance (km) Brightness Sun altitude
Rises 17:58:41 0° 180° (S) 2,627 6.4 -15.9°
Reaches altitude 10° 18:00:49 10° 176° (S) 1,748 5.4 -16.2°
Maximum altitude 18:04:35 56° 98° (E) 631 2.7 -16.8°
Enters shadow 18:07:00 21° 27° (NNE) 1,233 4.3 -17.1°
